#timestamp,LO_Frequency,Hit,StdDev 
1680300015.5,286047001.2,N
1680300035.4,286047000.3,N
1680300055.2,286047000.4,N
1680300075.0,286047000.0,N
1680300075.9,286047000.0,N
1680300095.8,286047000.6,N
1680300115.6,286046998.1,N
1680300135.5,286046998.4,N
1680300155.3,286046998.4,N
1680300175.1,286047000.9,N
1680300195.9,286047000.7,N
1680300215.7,286047001.0,N
1680300235.6,286047000.9,N
1680300255.4,286047001.1,N
1680300275.2,286046999.4,N
1680300295.1,286046998.4,N
1680300296.0,286046998.4,N
1680300315.8,286046999.3,N
1680300335.6,286046999.0,N
1680300355.5,286046998.7,N
1680300375.3,286046999.0,N
1680300395.2,286046999.1,N
1680300415.9,286046999.0,N
1680300435.7,286047001.1,N
1680300455.6,286046998.7,N
1680300475.4,286046996.9,N
1680300495.3,286046998.8,N
1680300515.1,286046998.5,N
1680300516.0,286046998.5,N
1680300535.8,286047000.6,N
1680300555.7,286047000.8,N
1680300575.5,286047001.2,N
1680300595.4,286047000.8,N
1680300615.2,286046998.9,N
1680300635.0,286046998.8,N
1680300635.9,286046998.8,N
1680300655.8,286046999.4,N
1680300675.6,286046997.0,N
1680300695.5,286046996.7,N
1680300715.3,286046997.5,N
1680300735.1,286046996.7,N
1680300755.9,286046996.8,N
1680300775.7,286046997.6,N
1680300795.5,286046998.0,N
1680300815.4,286046997.5,N
1680300835.2,286046996.6,N
1680300855.1,286046997.6,N
1680300856.0,286046997.6,N
1680300875.8,286046996.8,N
1680300895.6,286046997.5,N
1680300915.5,286046996.8,N
1680300935.3,286046996.9,N
1680300955.1,286046996.8,N
1680300975.9,286046999.2,N
1680300995.7,286046999.4,N
1680301015.6,286046998.2,N
1680301035.4,286046998.3,N
1680301055.2,286046996.9,N
1680301075.1,286046996.9,N
1680301076.0,286046996.9,N
1680301095.8,286046999.2,N
1680301115.7,286046996.6,N
1680301135.5,286046999.6,N
1680301155.3,286046999.6,N
1680301175.2,286046999.4,N
1680301195.0,286046998.2,N
1680301195.9,286046998.2,N
1680301215.8,286047000.2,N
1680301235.6,286047000.2,N
1680301255.4,286046999.8,N
1680301275.3,286047002.7,N
1680301295.1,286047002.4,N
1680301315.8,286047000.2,N
1680301335.7,286047002.3,N
1680301355.5,286047002.5,N
1680301375.4,286046999.7,N
1680301395.2,286047000.2,N
1680301415.0,286047002.1,N
1680301415.9,286047002.1,N
1680301435.8,286047001.9,N
1680301455.6,286047001.9,N
1680301475.4,286047002.7,N
1680301495.3,286047002.5,N
1680301515.1,286047002.2,N
1680301535.9,286047002.7,N
1680301555.7,286047002.1,N
1680301575.5,286047001.6,N
1680301595.4,286047002.0,N
1680301615.2,286047002.2,N
1680301635.0,286047001.3,N
1680301635.9,286047001.3,N
1680301655.8,286047001.8,N
1680301675.6,286047004.4,Y
1680301695.5,286047002.3,P
1680301715.3,286047001.4,N
1680301735.1,286047002.8,P
1680301755.9,286047004.3,Y
1680301775.7,286047000.2,P
1680301795.6,286047002.7,P
1680301815.4,286047000.3,N
1680301835.2,286047000.3,N
1680301855.1,286046999.4,N
1680301856.0,286046999.4,N
1680301875.8,286046998.4,N
1680301895.6,286046998.5,N
1680301915.5,286046998.2,N
1680301935.3,286046999.9,N
1680301955.2,286046998.1,N
1680301975.9,286047001.1,N
1680301995.7,286047000.4,N
1680302015.6,286046999.9,N
1680302035.4,286047002.4,N
1680302055.3,286047002.4,N
1680302075.1,286047001.5,N
1680302095.8,286047002.1,N
1680302115.7,286047001.4,N
1680302135.5,286047001.4,N
1680302155.4,286047001.3,N
1680302175.2,286047004.4,Y
1680302195.0,286047001.3,P
1680302195.9,286047001.3,P
1680302215.8,286047002.2,P
1680302235.6,286047004.4,Y
1680302255.4,286047000.1,P
1680302275.3,286047000.6,N
1680302295.1,286047000.6,N
1680302315.9,286046999.9,N
1680302335.7,286047002.3,Y
1680302355.5,286047002.7,P
1680302375.4,286047002.4,N
1680302395.2,286047000.3,N
1680302415.0,286047000.7,N
1680302415.9,286047000.7,N
1680302435.8,286047000.9,N
1680302455.6,286047002.5,N
1680302475.5,286047002.5,N
1680302495.3,286046999.7,N
1680302515.1,286047001.0,N
1680302535.9,286046998.2,N
1680302555.7,286047000.8,N
1680302575.5,286046998.5,N
1680302595.4,286047000.8,N
1680302615.2,286047000.2,N
1680302635.1,286047002.1,N
1680302636.0,286047002.1,N
1680302655.8,286047002.4,N
1680302675.6,286047002.5,N
1680302695.5,286047000.0,N
1680302715.3,286047002.4,N
1680302735.1,286046999.8,N
1680302755.9,286047002.4,N
1680302775.7,286047002.7,N
1680302795.6,286047001.5,N
1680302815.4,286047002.2,N
1680302835.2,286047002.7,N
1680302855.1,286047002.7,N
1680302856.0,286047002.7,N
1680302875.8,286047000.4,N
1680302895.7,286047000.3,N
1680302915.5,286047000.7,N
1680302935.3,286047000.7,N
1680302955.2,286047001.7,N
1680302975.0,286047002.4,N
1680302975.9,286047002.4,N
1680302995.7,286046999.7,N
1680303015.6,286047000.3,N
1680303035.4,286046999.9,N
1680303055.3,286047002.1,N
1680303075.1,286047002.0,N
1680303076.0,286047002.0,N
1680303095.8,286047002.0,N
1680303115.7,286047002.1,N
1680303135.5,286047002.4,N
1680303155.3,286047001.6,N
1680303175.2,286047002.2,N
1680303195.0,286047002.1,N
1680303195.9,286047002.1,N
1680303215.8,286047001.9,N
1680303235.6,286047001.4,N
1680303255.4,286047001.7,N
1680303275.3,286047001.4,N
1680303295.1,286047002.0,N
1680303315.9,286047001.5,N
1680303335.7,286047001.7,N
1680303355.5,286047001.4,N
1680303375.4,286047004.3,Y
1680303395.2,286046999.7,P
1680303415.1,286047000.2,N
1680303416.0,286047000.2,N
1680303435.8,286047000.2,N
1680303455.6,286047001.4,N
1680303475.5,286047000.0,N
1680303495.3,286047000.3,N
1680303515.1,286047000.3,N
1680303535.9,286046999.8,N
1680303555.7,286047001.9,Y
1680303575.6,286047000.4,P
1680303595.4,286047000.1,P
